Location: Ash Shall?l al Awwal
(24.0167°N, 32.8667°E)
Time: 04:16:21
(UTC+00:00)

Cosmos 1515 - Pass Details

Date: 02 March 2021
Orbit: 504 x 516 km, 82.5° (Epoch: 12 April)

Event Time Altitude Azimuth Distance (km) Brightness Sun altitude
Rises 16:42:37 0° 1° (N) 2,625 7.3 -12.4°
Reaches altitude 10° 16:44:48 10° 7° (N) 1,735 6.3 -12.9°
Maximum altitude 16:48:30 50° 83° (E) 654 3.8 -13.7°
Drops below altitude 10° 16:52:10 10° 160° (SSE) 1,720 6.2 -14.6°
Sets 16:54:19 0° 165° (SSE) 2,600 7.1 -15.1°
